Theta_e
305 305 305 306 306 307 307 307 305 304 302 302 302 301 302 302 301 297 293 294 291 288 289 290 291 286 285 284 280 284 285 288 283 282 283 284 285 287 284 286 284 280 283 281 284 281 278 297 294 286 290 292 297 298
305 305 305 305 306 306 307 307 305 303 302 302 301 301 302 302 302 302 292 294 295 291 288 291 292 293 292 291 286 285 283 285 288 279 286 284 281 283 283 281 289 279 284 284 285 282 291 295 295 297 297 298 298 297
306 305 305 305 305 306 306 306 305 303 302 301 301 301 301 301 302 300 297 295 294 289 287 284 286 291 294 293 295 287 285 289 288 294 290 286 282 287 281 278 283 288 290 284 285 289 291 293 296 299 300 299 300 299
305 305 305 305 305 306 306 306 304 303 302 301 301 301 302 302 301 301 293 292 294 290 281 284 293 291 295 294 292 293 291 292 294 295 290 288 285 292 286 286 283 288 288 285 286 290 293 295 297 300 300 300 299 300
305 305 305 305 305 306 306 306 304 302 301 301 301 302 302 301 301 297 294 293 297 287 283 284 291 292 294 293 292 292 291 290 294 292 289 288 291 289 287 286 283 289 287 285 285 292 292 293 298 300 298 299 298 297
304 304 305 305 305 306 306 305 303 302 301 301 302 302 302 301 301 295 287 296 297 295 288 282 288 290 293 294 296 291 291 292 294 292 291 293 295 291 286 284 288 291 294 295 292 297 297 299 301 301 297 297 297 295
304 304 305 305 305 306 306 304 302 301 301 301 301 301 301 301 296 291 286 296 299 296 289 284 282 289 293 293 294 295 293 293 294 294 292 292 293 292 287 285 291 293 296 298 299 299 296 296 294 297 297 297 296 294
304 304 305 305 305 306 305 303 302 301 300 300 301 301 302 302 299 294 295 301 300 292 292 283 282 285 291 288 287 293 294 296 296 294 294 291 293 292 286 291 294 296 297 299 300 299 294 296 296 297 297 294 292 291
304 304 305 305 305 306 304 302 300 300 300 300 301 303 298 294 291 296 306 303 299 294 288 287 282 280 291 288 289 289 297 291 295 291 292 292 290 286 291 292 293 298 297 297 299 296 296 295 294 295 293 291 289 290
304 304 304 304 305 305 302 300 299 299 300 300 297 295 293 297 300 302 296 293 293 294 291 285 290 285 289 288 288 289 285 287 286 291 295 289 287 294 291 291 294 295 300 298 294 293 294 294 294 291 290 289 290 290
304 304 303 304 305 304 300 299 299 299 297 290 287 288 290 297 291 288 285 289 289 287 289 288 289 286 289 287 287 292 284 287 286 290 288 286 286 287 291 292 295 298 300 297 296 296 297 296 293 289 289 291 292 292
304 303 303 304 305 302 300 299 298 294 291 290 290 293 291 289 287 284 283 289 285 283 288 284 285 287 287 289 290 292 289 291 286 295 286 285 286 289 290 292 295 302 296 296 297 297 297 296 295 292 291 291 290 293
304 304 304 305 303 300 299 298 298 298 296 295 291 289 286 285 278 283 280 281 279 284 286 285 281 284 286 291 286 288 287 286 292 285 285 285 288 289 291 293 298 303 300 297 297 298 296 296 296 293 291 292 291 292
304 304 304 303 301 299 298 298 298 296 293 290 288 278 282 283 284 282 281 281 284 284 284 282 281 282 284 285 286 284 288 288 282 279 279 285 287 289 291 293 294 297 302 297 296 296 295 295 295 294 293 293 292 291
304 304 303 301 299 298 298 298 297 295 292 289 287 276 281 285 284 284 284 284 285 284 283 282 282 284 285 285 285 284 281 277 280 278 283 287 289 289 290 291 292 295 302 297 296 295 294 294 294 293 294 293 293 292
304 302 298 299 298 298 298 297 295 294 292 289 285 282 283 283 282 284 284 284 286 285 285 285 283 283 280 280 274 278 272 273 277 284 287 289 288 288 289 291 292 296 299 297 296 295 295 293 293 293 294 293 293 292
298 293 298 298 298 298 298 293 294 291 289 287 284 285 283 283 284 284 285 286 287 284 282 283 279 280 282 276 276 280 275 281 285 287 289 287 287 287 289 291 293 295 298 300 295 295 294 294 294 293 291 292 293 293
293 296 298 298 298 295 294 293 292 290 285 285 282 284 285 286 286 287 288 288 287 285 284 283 284 277 278 271 277 282 284 287 287 287 286 287 288 289 290 290 293 295 296 300 295 294 294 293 292 292 292 293 293 293
295 297 298 299 296 293 291 291 292 286 286 286 286 286 288 287 288 288 287 288 287 288 285 282 279 278 279 283 283 284 284 284 284 285 286 288 289 289 289 291 293 293 295 298 293 292 292 292 292 293 293 293 292 292
299 299 299 299 295 291 290 290 292 286 284 286 286 287 287 286 286 285 285 285 284 283 282 279 278 280 283 286 288 286 286 286 285 284 285 286 288 289 289 290 291 292 295 299 295 292 292 291 292 292 293 292 292 291
295 296 297 293 290 291 290 289 286 287 287 285 288 288 285 286 284 283 282 284 282 280 279 281 282 286 287 290 288 287 286 287 285 285 285 285 288 289 289 290 290 291 292 294 295 293 292 290 291 293 292 292 294 293
293 297 291 292 290 291 288 289 287 287 286 286 286 289 285 283 282 282 283 281 280 280 281 282 285 286 287 287 287 286 285 287 287 287 288 289 287 287 287 288 288 288 290 291 291 292 293 293 293 293 293 292 292 291
296 295 293 292 288 285 283 290 285 286 284 284 286 286 284 283 284 286 280 280 280 284 284 287 288 288 288 289 290 286 285 284 284 285 287 288 288 288 288 288 288 288 288 288 290 292 293 290 292 293 293 293 293 291
296 291 288 287 285 282 288 285 287 286 285 283 283 284 284 283 285 282 278 278 279 282 287 287 287 286 287 288 283 282 282 282 282 285 288 287 285 286 287 287 288 289 289 289 290 290 293 295 291 292 293 292 291 291
284 284 284 279 286 284 284 285 285 284 283 284 284 284 284 286 281 280 278 278 279 280 285 287 286 286 286 282 281 280 281 279 279 280 286 288 286 285 285 286 288 289 290 287 287 289 291 294 296 293 293 291 289 288
278 283 281 284 284 284 284 282 283 283 284 284 284 286 284 279 280 279 277 278 277 279 279 280 281 281 280 281 279 278 278 279 278 278 280 282 285 284 281 281 283 285 288 288 287 287 289 291 294 294 292 290 287 288
277 280 284 289 287 287 285 285 286 283 283 283 284 283 281 276 277 279 281 281 280 280 283 284 283 282 281 280 280 280 280 278 278 278 280 281 281 283 281 281 281 284 286 288 288 288 287 289 292 295 293 291 290 289
284 285 282 284 284 285 284 284 284 282 283 286 286 282 278 279 280 281 283 284 285 284 283 283 284 283 282 280 280 279 278 278 279 279 278 279 280 281 281 282 284 284 286 287 287 287 287 289 290 293 295 292 290 289
283 286 286 283 285 285 285 284 285 286 288 287 283 281 281 282 284 282 283 285 285 283 282 280 280 282 281 280 279 278 276 275 276 274 273 274 275 276 280 280 281 283 285 285 285 285 285 286 288 290 294 295 292 289
283 287 283 285 284 283 285 287 286 286 286 286 285 283 281 281 283 285 284 283 282 281 281 280 280 280 278 277 276 278 277 274 272 272 268 268 272 277 277 278 279 281 284 284 283 284 284 285 289 291 290 295 291 288
287 287 285 285 285 286 286 287 287 287 286 284 285 281 279 281 283 284 283 281 281 281 281 280 280 280 279 278 277 276 275 276 277 278 277 277 276 276 277 278 278 280 282 282 282 282 282 283 286 290 294 294 291 288
285 284 284 283 283 287 288 286 284 282 282 281 281 281 280 279 278 280 283 281 281 280 279 280 279 278 279 279 278 278 277 277 277 278 279 278 277 278 277 277 277 279 280 280 281 279 279 281 281 284 288 294 292 289
284 286 286 286 284 286 286 286 285 283 282 281 281 281 279 277 275 279 284 284 279 278 277 277 280 280 281 280 279 279 278 278 277 277 277 276 276 276 276 276 277 278 277 278 278 277 277 278 279 280 287 291 291 290
Wind_Speed
16 15 14 13 12 11 11 10 9 9 8 10 10 10 11 10 9 3 4 3 3 4 10 8 5 5 3 3 4 4 6 1 3 2 2 2 3 4 4 3 3 6 4 4 3 6 7 4 4 6 9 5 5 11
16 15 15 13 12 12 10 10 10 9 8 10 11 9 10 10 9 8 2 2 2 4 9 7 15 18 16 16 4 3 5 3 4 2 2 3 3 4 3 4 4 3 5 2 6 6 6 5 13 12 6 16 15 13
17 16 15 13 12 12 11 10 11 10 9 11 11 10 10 10 9 7 2 1 2 3 7 4 4 6 5 13 16 5 4 7 4 2 2 3 4 1 3 5 4 4 2 4 6 6 10 8 14 10 14 12 16 16
18 17 15 14 12 12 11 11 12 10 10 11 12 11 11 10 10 9 2 2 2 3 4 8 3 10 7 6 10 16 9 1 3 3 3 3 3 3 3 5 7 8 6 5 7 10 10 12 13 15 17 18 18 16
19 17 16 13 12 11 11 11 11 10 12 12 13 12 11 10 10 4 4 4 6 3 4 7 14 6 7 6 9 11 11 5 2 2 3 4 3 3 3 3 4 4 6 3 14 15 15 18 19 20 19 18 11 9
20 17 15 14 13 11 12 11 11 11 13 13 14 13 12 10 7 2 4 1 4 3 3 5 5 7 10 9 4 7 9 5 4 4 4 3 3 2 3 5 7 6 5 5 11 14 18 21 21 16 10 7 13 15
19 15 15 14 13 12 11 12 12 12 13 14 15 14 12 9 1 3 4 2 9 3 2 5 6 6 6 5 3 0 3 3 4 3 4 3 3 4 3 4 9 13 12 15 15 12 10 6 10 11 14 20 18 17
18 15 15 13 12 12 11 11 11 12 14 16 17 16 15 10 3 4 4 11 8 3 2 3 6 6 5 4 4 0 2 2 4 2 2 3 2 3 5 8 14 16 14 16 13 8 6 10 16 15 16 14 17 14
19 18 15 11 12 12 11 11 10 12 15 17 19 6 3 3 3 3 3 9 3 2 1 2 3 5 5 4 3 4 2 2 2 3 2 3 2 3 9 19 24 22 14 17 17 6 11 15 18 19 15 13 13 13
20 18 15 13 14 13 11 7 9 13 15 15 1 1 1 2 8 3 2 2 1 1 1 3 2 4 2 3 4 4 2 2 2 3 2 1 1 7 11 19 17 17 15 8 5 10 14 17 17 16 14 12 12 14
21 19 17 14 16 13 9 7 8 11 5 3 2 1 2 8 2 0 2 3 2 2 3 4 4 5 2 3 3 3 3 3 3 2 2 1 3 17 24 24 22 20 11 5 5 6 10 13 14 14 12 14 13 14
22 20 17 16 14 12 10 8 5 1 1 3 1 1 2 1 0 2 3 2 3 4 3 4 5 5 4 2 3 3 3 2 4 3 1 3 7 19 21 25 22 15 9 6 6 9 13 12 11 11 13 13 13 13
23 20 17 16 15 13 10 8 5 5 0 1 1 1 3 2 1 3 1 2 3 2 4 2 5 3 3 1 3 3 4 3 7 5 4 2 13 19 21 20 22 18 13 6 8 11 13 13 13 13 10 11 9 12
21 19 17 17 16 13 10 8 6 3 2 2 2 1 4 3 3 3 4 3 5 3 5 3 3 1 1 3 2 3 3 3 4 6 6 8 16 20 21 21 20 21 14 8 8 12 13 13 13 14 13 12 12 14
20 19 18 17 16 13 11 8 6 2 2 2 3 3 5 2 0 2 3 1 3 3 1 3 2 2 3 3 3 3 5 4 4 4 5 10 16 18 20 21 21 21 15 6 7 10 11 11 11 12 13 14 15 14
20 18 6 16 16 13 11 7 3 2 2 2 3 2 2 2 3 2 1 2 2 3 1 2 3 3 4 2 6 5 3 3 4 6 9 10 18 18 18 20 20 18 17 8 6 8 9 10 11 11 11 12 13 13
14 3 16 17 16 13 11 2 3 4 3 3 4 2 3 2 3 3 1 3 2 2 2 2 5 2 3 4 4 3 2 5 9 9 8 13 16 18 18 18 19 19 18 10 8 9 9 9 9 11 13 14 12 13
3 8 21 19 12 8 2 2 2 3 5 4 2 2 3 2 2 2 2 2 2 2 2 3 3 5 3 2 2 2 4 6 7 8 12 14 15 16 14 16 17 16 16 13 7 7 8 10 10 8 11 11 10 12
8 10 21 21 7 4 4 5 3 3 4 3 2 2 3 2 2 2 2 3 3 3 4 4 4 2 1 1 2 4 5 6 9 9 11 13 13 15 16 16 16 17 17 9 7 5 5 7 5 6 6 8 8 9
16 17 18 14 3 2 3 3 3 2 3 3 3 4 4 3 2 3 3 4 3 3 5 4 2 1 0 1 2 2 4 6 7 8 8 9 9 13 13 13 11 14 12 13 3 6 5 5 5 5 6 7 8 9
10 6 11 5 2 1 1 1 2 4 2 3 3 4 3 2 3 2 2 2 4 3 2 1 2 1 1 1 3 3 4 6 6 6 8 9 10 9 9 10 11 9 9 9 9 5 5 4 3 4 4 5 6 7
4 10 3 2 2 4 2 3 3 1 2 3 3 3 4 3 3 2 2 4 3 1 2 2 0 1 1 2 3 2 5 8 8 7 8 9 8 9 9 9 10 10 9 9 9 9 4 3 3 3 4 4 6 6
10 3 3 3 4 3 5 2 2 2 3 3 3 4 3 3 3 3 3 2 2 2 3 2 1 0 1 2 3 5 5 6 6 6 7 7 7 7 7 8 8 9 10 10 9 8 7 5 4 2 3 4 4 5
1 4 4 5 4 4 2 3 2 3 2 2 4 4 4 4 3 3 2 2 3 2 3 3 1 0 0 2 3 3 5 3 5 5 6 6 8 8 8 7 7 6 6 9 9 8 8 8 6 4 4 4 5 5
4 5 5 4 4 4 5 4 4 3 4 4 4 3 3 3 3 2 4 3 3 3 3 3 3 1 0 2 1 4 5 3 4 4 5 6 7 7 8 7 6 6 6 8 9 9 9 8 7 5 1 3 6 7
4 4 6 6 4 4 5 5 7 6 4 4 4 4 3 4 3 3 4 5 4 3 3 3 3 1 2 1 1 3 4 4 3 3 4 5 5 6 9 10 10 8 9 9 8 9 10 9 9 7 4 5 6 8
4 5 4 3 2 2 2 1 3 4 4 4 4 4 4 3 5 3 2 2 4 3 4 4 3 3 4 3 1 1 4 4 2 4 5 4 4 3 6 8 11 9 11 11 9 9 10 10 9 8 2 2 3 7
3 2 5 4 3 3 2 3 4 4 4 3 4 3 8 5 3 4 4 4 4 4 3 1 3 4 6 4 2 2 3 4 5 5 4 4 4 2 7 7 8 14 10 9 10 9 9 9 8 8 6 5 3 4
3 2 2 2 3 3 4 5 5 3 2 4 5 3 4 1 2 3 3 4 4 4 4 5 4 4 4 4 3 2 3 3 9 10 11 8 8 5 9 8 9 10 9 10 13 9 11 10 10 9 10 4 7 5
3 4 3 4 5 5 3 3 3 3 4 4 5 4 4 4 4 3 4 4 4 5 4 5 4 5 4 4 3 4 4 2 2 3 1 3 5 9 9 9 9 10 10 11 11 13 12 10 9 4 7 6 9 9
2 4 3 3 4 2 5 8 8 5 4 5 7 7 5 4 4 6 4 3 4 4 5 5 4 3 5 4 4 3 3 4 5 4 2 3 4 6 7 8 8 9 9 10 10 10 12 10 8 7 4 12 16 14
3 5 4 3 2 5 4 4 4 4 2 3 2 3 3 4 4 1 2 1 4 4 3 4 5 3 3 4 4 4 5 2 3 4 5 3 5 7 8 7 8 8 10 11 10 10 14 13 9 10 8 15 19 20
3 2 4 4 4 2 1 5 3 4 3 3 3 3 3 3 4 3 1 1 4 4 3 2 4 4 6 6 5 4 4 3 3 4 6 6 5 6 7 7 8 9 10 10 10 11 13 15 14 15 9 8 11 13
Wind_Direction
239 244 247 252 257 264 269 268 277 288 303 305 312 325 327 329 338 356 270 203 149 267 282 238 246 236 284 192 207 287 333 4 344 348 305 291 276 357 306 297 195 180 198 210 211 230 265 144 79 206 253 265 269 272
235 238 243 245 248 255 261 256 269 278 291 295 303 313 318 320 324 328 264 268 202 229 261 289 260 247 231 233 184 239 221 322 273 47 9 325 329 306 296 290 331 306 193 241 213 230 239 227 264 276 249 274 278 269
232 236 236 239 243 251 256 250 262 271 285 290 298 304 310 309 312 309 266 268 263 281 288 327 252 261 219 223 218 217 242 200 240 109 241 259 255 260 272 262 298 295 262 245 331 267 269 283 285 298 288 260 274 268
232 234 233 234 239 245 250 245 260 271 281 287 294 298 303 303 309 308 190 210 228 284 286 284 301 298 273 207 183 204 219 197 158 165 207 240 263 225 243 256 245 251 322 259 254 281 304 270 295 287 288 290 286 276
228 228 228 229 235 241 248 242 257 270 278 286 291 294 300 305 312 313 227 211 206 176 284 292 309 251 286 258 214 202 214 208 170 217 218 219 235 259 262 269 252 207 220 247 289 307 288 280 291 291 294 291 296 295
229 219 221 222 229 236 239 241 255 266 275 288 292 297 298 302 323 7 8 62 182 169 297 304 281 290 309 314 285 216 191 179 202 189 218 243 241 186 265 262 242 238 267 249 276 271 285 281 280 289 292 299 308 306
220 217 220 219 225 232 228 241 254 267 280 288 291 292 289 286 162 206 191 136 165 115 268 295 303 282 299 306 314 107 144 167 160 231 217 229 218 182 247 266 290 308 291 284 279 285 302 324 318 313 311 310 314 296
203 212 219 215 221 230 226 239 256 272 285 292 293 291 283 256 238 261 252 243 197 197 229 295 280 328 358 310 321 21 185 195 201 219 195 207 177 215 262 278 292 296 299 293 302 318 303 314 321 302 308 323 306 306
191 200 203 205 226 225 227 242 263 283 293 298 299 286 91 92 165 230 170 119 173 164 284 288 297 296 348 292 281 309 239 263 356 236 226 146 171 226 327 335 321 313 301 293 303 302 328 324 319 314 336 324 316 308
186 185 187 200 223 216 220 241 272 289 301 302 129 173 147 148 341 99 23 174 133 189 127 255 276 265 12 289 299 307 347 253 263 234 120 216 112 10 321 316 306 310 310 293 323 326 320 322 328 340 341 323 314 316
179 176 184 203 218 202 196 232 271 299 318 39 43 217 299 317 95 121 202 218 151 230 210 241 238 279 267 267 280 247 291 256 268 84 230 127 33 343 333 329 330 319 302 319 317 306 311 321 341 338 332 326 335 325
174 176 181 206 200 182 191 222 253 320 126 182 169 285 326 20 120 241 222 141 195 226 215 217 249 208 268 208 260 268 273 264 256 346 128 43 348 333 334 330 315 316 317 325 335 314 328 337 354 352 336 342 344 344
171 173 184 190 177 175 190 214 216 216 136 120 113 28 87 199 65 230 344 334 334 248 239 243 291 223 330 293 314 304 293 324 305 14 45 63 325 333 336 330 338 346 351 352 343 332 346 350 356 12 351 1 350 3
166 172 176 172 169 172 195 201 200 164 163 179 169 340 184 212 229 194 181 204 238 221 273 236 251 218 341 9 315 296 339 319 39 18 356 335 332 328 332 337 339 336 340 338 347 337 355 359 358 358 359 7 17 23
163 168 164 167 167 176 189 191 179 178 197 197 167 216 211 229 183 212 217 283 269 236 328 340 32 74 5 329 16 355 4 41 18 11 308 313 327 331 332 332 334 336 343 339 342 347 359 1 2 359 6 12 14 23
154 143 148 161 167 184 179 171 166 188 226 223 226 244 246 80 342 354 343 291 277 310 66 54 67 53 28 6 41 11 35 16 311 319 311 326 327 331 330 329 328 334 334 333 340 344 357 11 7 1 7 17 22 31
111 127 161 158 178 175 170 155 178 213 226 211 241 196 154 149 190 241 222 263 298 50 41 60 55 14 342 46 33 42 12 308 313 311 330 326 324 321 324 326 327 332 332 336 351 360 5 9 11 21 16 9 18 31
96 145 152 161 149 135 154 215 236 212 225 229 194 221 150 136 139 288 278 302 58 73 60 82 92 48 45 73 11 342 297 321 317 320 322 322 319 320 326 326 326 331 336 346 353 356 11 16 15 15 9 8 25 24
139 149 161 158 158 164 161 181 204 227 215 198 181 125 104 121 37 51 65 9 60 90 89 54 70 55 54 37 294 321 334 323 317 319 321 322 321 325 328 327 332 338 336 343 354 358 10 20 7 4 11 15 29 26
135 141 152 167 160 163 179 212 169 186 209 215 103 109 130 133 132 63 38 25 52 58 51 58 93 132 278 303 296 274 306 319 317 316 320 325 327 331 329 328 335 330 331 344 360 356 9 24 15 15 17 29 38 37
93 128 123 128 206 231 276 258 192 203 200 147 126 126 111 91 82 68 32 360 56 49 79 130 143 83 358 345 238 269 312 333 325 312 313 317 324 324 325 334 338 337 345 350 344 331 12 9 8 12 20 18 37 59
107 145 113 202 224 189 249 230 200 219 131 134 114 112 121 128 144 158 133 56 78 181 140 153 90 12 65 274 291 351 311 326 324 315 316 320 337 339 339 340 338 341 347 349 338 328 307 321 349 26 39 25 42 50
137 126 148 166 198 149 248 126 179 181 148 192 115 122 135 136 169 114 76 121 179 137 177 151 129 161 295 354 35 352 330 327 328 327 326 336 334 333 336 340 342 340 344 343 336 337 338 314 310 350 33 41 44 51
135 155 184 183 172 198 178 199 201 165 143 151 148 130 148 130 151 75 127 176 212 188 144 149 134 318 49 33 24 328 321 318 315 320 334 351 346 345 342 336 333 338 342 328 336 344 344 341 331 349 39 68 65 80
133 218 154 210 196 177 194 170 174 173 180 167 146 125 151 118 104 149 176 197 168 182 155 152 163 131 83 352 343 331 324 342 334 328 329 353 344 338 338 338 338 342 346 343 350 344 340 338 348 326 50 92 98 93
204 213 177 195 176 190 190 161 181 174 153 155 173 115 93 100 123 201 211 171 171 170 167 156 158 134 58 149 117 339 312 314 322 333 302 349 342 355 341 336 338 341 350 341 331 332 333 331 329 320 183 136 117 112
216 217 212 238 219 202 193 172 115 127 169 175 150 114 100 131 203 203 140 175 143 187 169 172 169 152 155 153 170 301 308 325 338 265 278 308 344 349 1 331 326 320 323 324 331 331 322 314 317 328 293 134 153 138
238 242 198 181 203 210 197 166 139 166 185 143 102 126 158 171 157 176 170 170 137 137 131 187 174 136 128 121 112 342 346 343 336 337 358 344 328 324 353 325 320 316 314 325 321 318 313 304 301 302 296 181 169 150
228 227 181 244 203 201 213 190 190 191 131 106 106 116 128 126 165 125 128 128 118 114 107 96 62 99 96 91 75 45 37 21 30 26 13 352 347 335 343 334 326 325 326 326 322 311 305 301 286 268 266 193 147 134
231 187 203 215 180 199 220 166 117 87 44 85 108 97 53 32 359 28 89 95 104 110 117 116 130 136 147 143 121 50 18 39 76 106 359 316 304 310 324 329 328 325 327 329 328 324 327 323 307 226 208 182 152 144
205 181 214 218 183 156 108 102 80 72 64 63 76 106 116 131 60 30 55 77 110 109 101 96 85 94 107 119 137 118 40 358 6 5 347 293 299 317 327 329 325 323 332 333 333 334 334 324 321 320 259 178 172 162
199 204 183 157 92 134 128 63 68 81 100 65 104 89 89 80 91 8 348 77 88 88 114 117 110 98 110 103 102 102 119 103 24 353 356 352 337 338 338 336 333 336 341 340 345 345 343 346 340 333 297 195 179 168
195 201 206 141 129 180 54 100 98 97 88 102 96 109 65 103 128 173 352 93 137 144 140 119 102 91 95 107 112 110 100 90 68 34 30 17 358 356 355 352 347 349 351 354 354 357 359 356 2 355 343 144 166 167